Regional Weather Roundup
Issued by NWS Newport/Morehead, NC

Current Version | Previous Version | Graphics & Text | Print | Product List | Glossary Off
Versions: 1 2 3 4 5 6 7 8 9 10 11 12 13 14 15 16 17 18 19 20 21 22 23 24 25 26 27 28 29 30 31 32 33 34 35 36 37 38 39 40 41 42 43 44 45 46 47 48 49 50

000
ASUS42 KMHX 261425
RWRMHX
WEATHER ROUNDUP FOR EASTERN NORTH CAROLINA
NATIONAL WEATHER SERVICE NEWPORT/MOREHEAD CITY NC
1000 AM EDT THU APR 26 2018

NOTE: "FAIR" INDICATES FEW OR NO CLOUDS BELOW 12,000 FEET
WITH NO SIGNIFICANT WEATHER AND/OR OBSTRUCTIONS TO VISIBILITY

NCZ015>017-031-032-045>047-102-103-261500-
NORTH COAST

CITY           SKY/WX    TMP DP  RH WIND       PRES   REMARKS
EDENTON        CLOUDY    66  59  80 NE3       29.90R
ELIZABETH CITY CLOUDY    65  55  70 N9        29.88S
KITTY HAWK     CLOUDY    63  54  73 CALM      29.88S
MANTEO         CLOUDY    64  58  79 NE7       29.89S

$$

NCZ045>047-081-094-103-104-261500-
CENTRAL COAST

CITY           SKY/WX    TMP DP  RH WIND       PRES   REMARKS
FRISCO         FAIR      69  60  73 VRB3      29.88S

$$

NCZ095-097-098-100-101-261500-
SOUTHERN COAST

CITY           SKY/WX    TMP DP  RH WIND       PRES   REMARKS
BEAUFORT       FAIR      69  58  67 NW3       29.89R
CEDAR ISLAND   NOT AVBL
JACKSONVILLE   FAIR      66  56  70 NE3       29.87F
PINEY ISLAND   NOT AVBL
WILMINGTON     FAIR      70  55  59 N5        29.88S


$$

NCZ011>013-027>030-043-044-078>080-089-090>093-098-261500-
COASTAL PLAIN

CITY           SKY/WX    TMP DP  RH WIND       PRES   REMARKS
AHOSKIE        FAIR      62  52  69 NE7       29.90R
CLINTON        FAIR      66  55  69 NE6       29.89S
ELIZABETHTOWN  PTSUNNY   65  55  69 MISG      29.89S
GOLDSBORO      LGT RAIN  68  54  60 CALM      29.87S
GREENVILLE     FAIR      64  55  72 NE3       29.91R
HAVELOCK       NOT AVBL
KENANSVILLE    CLOUDY    66  55  68 N3        29.88S
KINSTON        FAIR      66  55  68 CALM      29.89S
NEW BERN       FAIR      67  56  67 CALM      29.89S
RICHLANDS      FAIR      67  55  65 NE6       29.88F
ROCKY MOUNT    FAIR      66  55  67 NE9       29.88S
WASHINGTON     FAIR      67  56  67 CALM      29.88S
WHITEVILLE     FAIR      67  54  61 NE5       29.88S

$$

AMZ130-135-150-152-154-156-158-170-250-252-270-ANZ085-086-088-633-658-670-261500-
MARINE OBSERVATIONS

STATION/POSITION TIME  TEMP    WIND        PRES    WAVE   SWELL
                       AIR SEA DIR/SP/G            HT/PER HT/PER
                 (UTC) (F)     (DEG/KT/KT) (MB)    (FT/S) (FT/S)
CHESAPEAKE LIGHT NOT AVBL
64 E VA BEACH    1350   53 51  290/  6/ 10 1012.2    8/10   7/10
DUCK             1400   58 52   10/  9/  9 1011.6
2 E DUCK         1400      55                N/A     4/11   3/11
OREGON INLET     1400   63 62   50/  5/  6 1012.0
13E OREGON INLT  1348      55                N/A     5/10   5/10
HATTERAS CG      1400   66 67   10/  2/  3 1011.6
DIAMOND BUOY     1410   66 70  350/  4/  8 1012.4
CAPE LOOKOUT     NOT AVBL
BEAUFORT LAB     1400   67 64   10/  3/  4 1012.2
30 SE NEW RVR IN 1408   67 66  330/  2/  6 1010.4
30 SE NEW RVR IN 1400      67                N/A     4/ 9   2/11
27 SE WRIGHTSVLE 1408   64 65  360/  6/ 10 1011.9
5 SE WRIGHTSVLE  1308   63 63  360/  6/  8 1011.1
225 S CAPE HAT   1410   72 73  200/ 12/ 16 1013.5
41 SE CHARLESTON 1410      69  240/  6/  8 1012.0

$$




USA.gov is the U.S. government's official web portal to all federal, state and local government web resources and services.